CW4489 Marathon FL US current weather conditions

sailwx.info

Wind from 095 at 5 knots gusting 5

Air temperature 20.0° C
Dewpoint 14.8° C

Last reported at 2015-Feb-01 09:50 UTC.
Time now 2015-Feb-01 10:14 UTC

Location: N 24°44' W 081°02'.
View on Google Maps.

See reports from other nearby stations

  
Tides and Currents Weather Stations Pressure Air Temp Water Temp Dewpoint Dewpoint Depression Visibility Wind Speed Wind Dir Waves Ship Positions
date/time (UTC)wind fromknots sea level pressurealtimeterstation pressurevisibilityair tempwater tempwave heightnotes
2015-Feb-01 09:50 095 5 gusting 5 20.0
2015-Feb-01 09:30 065 0 gusting 3 20.0
2015-Feb-01 09:10 071 1 gusting 5 20.0
2015-Feb-01 09:00 114 2 gusting 7 20.0
2015-Feb-01 08:40 117 2 gusting 6 20.6
2015-Feb-01 08:30 092 0 gusting 5 20.6
2015-Feb-01 08:20 082 0 gusting 6 20.0
2015-Feb-01 08:10 064 2 gusting 6 20.6
2015-Feb-01 08:00 071 8 gusting 9 20.0
2015-Feb-01 07:50 079 2 gusting 9 20.0
2015-Feb-01 07:40 069 3 gusting 6 20.0
2015-Feb-01 07:30 071 1 gusting 6 20.0
2015-Feb-01 07:20 105 1 gusting 6 20.0
2015-Feb-01 07:10 076 2 gusting 7 20.0
2015-Feb-01 06:50 086 0 gusting 6 20.6
2015-Feb-01 06:40 114 2 gusting 8 20.6
2015-Feb-01 06:20 073 20.6
2015-Feb-01 06:00 061 3 gusting 7 20.6
2015-Feb-01 05:40 079 0 gusting 5 20.6
2015-Feb-01 05:30 082 20.6
2015-Feb-01 05:10 098 2 gusting 3 20.6
2015-Feb-01 05:00 096 3 gusting 6 20.6
2015-Feb-01 04:40 052 2 gusting 8 20.6
2015-Feb-01 04:30 076 1 gusting 6 20.6
2015-Feb-01 04:20 052 1 gusting 4 20.6
2015-Feb-01 04:00 059 3 gusting 3 20.6
2015-Feb-01 03:50 066 0 gusting 4 20.6
2015-Feb-01 03:00 067 1 gusting 6 20.6
2015-Feb-01 02:50 090 5 gusting 5 20.6
2015-Feb-01 02:40 061 5 gusting 7 20.6
2015-Feb-01 02:30 061 1 gusting 8 20.6
2015-Feb-01 01:50 063 1 gusting 6 20.0
2015-Feb-01 01:40 056 4 gusting 5 20.0
2015-Feb-01 01:30 049 2 gusting 6 20.0
2015-Feb-01 01:10 053 0 gusting 3 20.0
2015-Feb-01 01:00 080 2 gusting 5 20.0
2015-Feb-01 00:50 039 0 gusting 6 20.0
2015-Feb-01 00:20 067 1 gusting 8 20.0
2015-Feb-01 00:10 057 2 gusting 8 20.0
2015-Jan-31 23:50 071 1 gusting 7 20.0
2015-Jan-31 23:30 063 5 gusting 6 20.6
2015-Jan-31 23:20 048 3 gusting 7 20.6
2015-Jan-31 22:50 050 2 gusting 6 21.1
2015-Jan-31 22:30 064 0 gusting 7 21.1
2015-Jan-31 22:20 067 6 gusting 6 21.7
2015-Jan-31 22:10 036 3 gusting 6 21.7
2015-Jan-31 21:50 038 2 gusting 7 22.2
2015-Jan-31 21:40 051 4 gusting 8 22.2
2015-Jan-31 21:30 059 9 gusting 9 22.8
2015-Jan-31 21:00 042 1 gusting 8 23.3
2015-Jan-31 20:50 052 2 gusting 8 23.3
2015-Jan-31 20:30 049 3 gusting 7 23.3
2015-Jan-31 20:20 037 0 gusting 7 23.3
2015-Jan-31 20:00 063 2 gusting 8 23.3
2015-Jan-31 19:50 034 2 gusting 8 23.3
2015-Jan-31 19:30 040 4 gusting 7 23.3
2015-Jan-31 19:20 028 4 gusting 8 23.3
2015-Jan-31 19:10 035 5 gusting 8 23.3
2015-Jan-31 19:00 042 4 gusting 12 23.3
2015-Jan-31 18:30 026 6 gusting 13 23.3
2015-Jan-31 17:40 040 2 gusting 9 23.3
2015-Jan-31 17:30 054 1 gusting 7 22.8
2015-Jan-31 17:20 037 3 gusting 6 22.8
2015-Jan-31 17:00 037 3 gusting 8 21.7
2015-Jan-31 16:50 034 6 gusting 7 21.7
2015-Jan-31 16:40 032 3 gusting 8 21.1
2015-Jan-31 16:30 030 5 gusting 7 21.1
2015-Jan-31 16:10 035 3 gusting 8 21.1
2015-Jan-31 16:00 032 6 gusting 8 20.6
2015-Jan-31 15:30 005 2 gusting 8 20.0
2015-Jan-31 15:20 030 6 gusting 8 20.0
2015-Jan-31 15:10 040 2 gusting 8 19.4
2015-Jan-31 15:00 028 2 gusting 8 19.4
2015-Jan-31 14:50 045 0 gusting 8 18.9
2015-Jan-31 14:30 038 3 gusting 7 18.9
2015-Jan-31 14:10 024 4 gusting 8 18.9
2015-Jan-31 13:40 030 4 gusting 8 17.8
2015-Jan-31 13:30 360 3 gusting 6 17.8
2015-Jan-31 13:20 026 5 gusting 7 17.8
2015-Jan-31 12:30 046 6 gusting 8 17.2
2015-Jan-31 12:10 017 6 gusting 10 17.2
2015-Jan-31 11:50 043 2 gusting 10 17.2
2015-Jan-31 11:20 019 2 gusting 9 17.2
2015-Jan-31 11:00 057 3 gusting 8 17.2
2015-Jan-31 10:50 049 3 gusting 8 17.2
2015-Jan-31 10:20 042 2 gusting 8 17.2
2015-Jan-31 10:10 039 2 gusting 8 17.2
2015-Jan-31 10:00 056 3 gusting 9 17.2
2015-Jan-31 09:50 048 3 gusting 8 17.2
2015-Jan-31 09:40 037 1 gusting 8 17.2
2015-Jan-31 09:20 016 0 gusting 5 17.8
2015-Jan-31 09:10 014 2 gusting 6 17.8
2015-Jan-31 09:00 026 2 gusting 6 17.8
2015-Jan-31 08:50 032 3 gusting 8 17.8
2015-Jan-31 08:40 019 2 gusting 6 17.8
2015-Jan-31 08:30 038 0 gusting 8 17.8
2015-Jan-31 08:00 360 6 gusting 8 17.8
2015-Jan-31 07:40 038 6 gusting 9 17.8
2015-Jan-31 07:20 036 2 gusting 8 17.8
2015-Jan-31 07:10 017 5 gusting 9 17.8
2015-Jan-31 07:00 005 5 gusting 7 17.8
2015-Jan-31 06:50 355 6 gusting 7 17.8
2015-Jan-31 06:40 050 1 gusting 8 17.8
2015-Jan-31 06:20 005 5 gusting 6 17.8
2015-Jan-31 06:10 009 4 gusting 7 17.8
2015-Jan-31 05:50 017 3 gusting 6 17.8
2015-Jan-31 05:40 025 3 gusting 6 17.8
2015-Jan-31 04:50 012 2 gusting 6 18.3
2015-Jan-31 04:20 031 3 gusting 5 18.3
2015-Jan-31 04:10 348 18.3
2015-Jan-31 04:00 005 3 gusting 5 18.3
2015-Jan-31 03:50 005 2 gusting 6 18.3
2015-Jan-31 03:40 005 1 gusting 5 18.3
2015-Jan-31 03:20 355 3 gusting 6 18.3
2015-Jan-31 03:00 005 2 gusting 6 18.9
2015-Jan-31 02:50 360 6 gusting 6 18.9
2015-Jan-31 02:40 336 5 gusting 5 18.9
2015-Jan-31 02:20 346 6 gusting 8 18.9
2015-Jan-31 02:10 334 4 gusting 9 18.9
2015-Jan-31 01:50 005 3 gusting 9 18.9
2015-Jan-31 01:40 014 7 gusting 9 18.9
2015-Jan-31 01:30 338 9 gusting 9 18.9
2015-Jan-31 01:20 355 6 gusting 9 18.9
2015-Jan-31 01:10 027 3 gusting 8 18.9
2015-Jan-31 00:50 360 2 gusting 6 18.9
2015-Jan-31 00:40 336 5 gusting 7 18.9
2015-Jan-31 00:30 355 2 gusting 8 18.9
2015-Jan-31 00:10 340 5 gusting 9 18.9
2015-Jan-30 23:50 005 4 gusting 6 18.9
2015-Jan-30 23:40 320 3 gusting 3 18.9
2015-Jan-30 23:30 348 2 gusting 6 19.4
2015-Jan-30 23:10 310 1 gusting 6 19.4
2015-Jan-30 23:00 331 0 gusting 5 19.4
2015-Jan-30 22:30 355 2 gusting 6 20.0
2015-Jan-30 22:00 360 3 gusting 7 20.6
2015-Jan-30 21:50 317 2 gusting 6 20.6
2015-Jan-30 21:40 355 2 gusting 7 20.6
2015-Jan-30 20:50 346 4 gusting 7 21.1
2015-Jan-30 20:30 355 6 gusting 8 21.1
2015-Jan-30 20:20 341 2 gusting 8 21.1
2015-Jan-30 20:00 024 4 gusting 6 21.1
2015-Jan-30 19:50 348 5 gusting 8 21.1
2015-Jan-30 19:40 355 7 gusting 8 21.1
2015-Jan-30 19:30 019 4 gusting 8 20.6
2015-Jan-30 19:10 355 4 gusting 8 21.1
2015-Jan-30 19:00 348 4 gusting 8 21.1
2015-Jan-30 18:50 322 5 gusting 8 21.1
2015-Jan-30 18:40 326 4 gusting 8 21.1
2015-Jan-30 18:30 333 5 gusting 7 21.7
2015-Jan-30 18:10 025 2 gusting 6 22.2
2015-Jan-30 17:50 345 4 gusting 6 22.8
2015-Jan-30 17:40 032 1 gusting 5 23.3
2015-Jan-30 17:30 051 3 gusting 5 23.3
2015-Jan-30 17:20 019 2 gusting 6 22.8
2015-Jan-30 17:10 030 0 gusting 5 22.8
2015-Jan-30 17:00 040 5 gusting 6 22.2
2015-Jan-30 16:50 024 2 gusting 8 21.7
2015-Jan-30 16:40 005 5 gusting 6 21.7
2015-Jan-30 16:10 031 2 gusting 7 21.7
2015-Jan-30 15:40 032 0 gusting 6 21.1
2015-Jan-30 15:30 013 3 gusting 6 20.6
2015-Jan-30 15:20 022 3 gusting 8 20.6
2015-Jan-30 15:10 040 1 gusting 6 20.6
2015-Jan-30 14:30 355 4 gusting 7 19.4
2015-Jan-30 14:20 005 1 gusting 7 19.4
2015-Jan-30 13:30 014 3 gusting 6 18.3
2015-Jan-30 13:20 005 5 gusting 6 18.3
2015-Jan-30 13:10 040 2 gusting 6 17.8
2015-Jan-30 13:00 013 5 gusting 7 17.8
2015-Jan-30 12:00 014 8 gusting 8 17.8
2015-Jan-30 11:50 053 6 gusting 6 17.8
2015-Jan-30 11:30 034 3 gusting 6 17.8
2015-Jan-30 11:00 017 2 gusting 6 17.8
2015-Jan-30 10:50 011 4 gusting 6 17.8
2015-Jan-30 10:30 355 3 gusting 8 17.8
2015-Jan-30 10:20 016 2 gusting 7 17.8